[[{"header":{"parameterUnit":"m.s-1","parameterCategory":1,"la1":30.2991,"la2":30.254,"lo1":-89.0895,"lo2":-89.0444,"dx":0.0017,"dy":0.0017,"nx":28,"ny":28,"refTime":"2023-01-17T09:00:00:Z","depth":0,"parameterNumber":2,"parameterNumberName":"U-component_of_WINDS"},"data":[0,0,0,0,0,0,0,0,0,0,0,0,0,0,0,0,0,0,0,0,0,0,0,0,0,0,0,0,0,0,0,0,0,0,0,0,0,0,0,0,0,0,0,0,0,0,0,0,0,0,0,0,0,0,0,0,0,0,-0.3279,-0.3278,0,-0.3175,-0.3174,-0.3173,-0.3186,-0.3187,-0.3189,-0.3191,-0.308,-0.3075,-0.3071,0,0,0,0,0,0,0,0,0,0,0,0,0,-0.3482,-0.3478,-0.3279,-0.3277,-0.3276,-0.3176,-0.3174,-0.3173,-0.3185,-0.3188,-0.319,-0.3192,-0.3081,-0.3076,-0.3071,0,0,0,0,0,0,0,0,0,0,0,0,0,-0.3388,-0.3477,-0.3279,-0.3271,-0.3269,-0.3176,-0.3174,-0.3172,-0.3185,-0.3188,-0.319,-0.3192,-0.3083,-0.3076,-0.307,-0.2977,0,0,-0.3049,-0.3046,0,0,0,0,0,0,0,0,-0.3393,-0.338,-0.3273,-0.3271,-0.3269,-0.3196,-0.3205,-0.3107,-0.3184,-0.3217,-0.3191,-0.3194,-0.3116,-0.3107,-0.3082,-0.2972,-0.2967,-0.3048,-0.3044,-0.3041,-0.3039,0,0,0,0,0,0,0,-0.3399,-0.3385,-0.3238,-0.3271,-0.3269,-0.327,-0.326,-0.3187,-0.3153,-0.3214,-0.3215,-0.3203,-0.3115,-0.3088,-0.3079,-0.2965,-0.3049,-0.3043,-0.3038,-0.3036,-0.2772,-0.2769,0,0,0,0,0,0,-0.3409,-0.339,-0.3241,-0.3235,-0.3339,-0.3265,-0.3253,-0.3217,-0.3154,-0.3147,-0.3201,-0.3204,-0.3099,-0.3087,-0.3075,-0.296,-0.3041,-0.3035,-0.3031,-0.2775,-0.2771,-0.2768,0,0,0,0,0,0,-0.3413,-0.3395,-0.3245,-0.3312,-0.3293,-0.3258,-0.3218,-0.3213,-0.3186,-0.3144,-0.3138,-0.3179,-0.31,-0.3085,-0.3001,-0.2957,-0.3032,-0.3026,-0.2778,-0.2774,-0.277,-0.2731,0,0,0,0,0,0,-0.3419,-0.3397,-0.3363,-0.3312,-0.329,-0.3174,-0.3215,-0.321,-0.3175,-0.3178,-0.3122,-0.3115,-0.3101,-0.3011,-0.2994,-0.2949,-0.302,-0.2782,-0.2776,-0.2771,-0.2736,-0.2726,-0.2717,0,0,0,0,0,-0.3426,-0.3355,-0.3361,-0.3343,-0.3246,-0.3172,-0.3159,-0.3145,-0.3172,-0.3135,-0.3108,-0.3117,-0.2965,-0.3003,-0.2984,-0.2935,-0.2785,-0.2778,-0.2771,-0.274,-0.2728,-0.2717,0,0,0,0,0,0,-0.34,-0.3348,-0.3354,-0.3265,-0.3223,-0.3174,-0.3128,-0.3133,-0.3081,-0.3086,-0.307,-0.3057,-0.2972,-0.2946,-0.2988,-0.2841,-0.2878,-0.2867,-0.2861,-0.2849,-0.2839,-0.2846,-0.3015,0,0,0,0,0,-0.3384,-0.333,-0.3287,-0.3212,-0.3191,-0.3163,-0.313,-0.3123,-0.3078,-0.306,-0.3027,-0.2981,-0.2923,-0.2885,-0.2829,-0.2733,-0.272,-0.2691,-0.2681,-0.2674,-0.2663,-0.2608,-0.2593,-0.2746,-0.2746,-0.2747,0,0,-0.335,-0.3315,-0.3281,-0.3206,-0.3172,-0.3114,-0.3148,-0.3085,-0.3041,-0.305,-0.2968,-0.2943,-0.2891,-0.28,-0.2758,-0.2775,-0.2619,-0.2665,-0.266,-0.2653,-0.26,-0.2585,-0.2572,-0.2742,-0.2743,-0.2743,0,0,-0.3257,-0.3227,-0.316,-0.3126,-0.3076,-0.3058,-0.3042,-0.2993,-0.2976,-0.2895,-0.29,-0.2847,-0.2748,-0.271,-0.2677,-0.2571,-0.2575,-0.2553,-0.2502,-0.2448,-0.2436,-0.2425,-0.2384,-0.237,-0.2544,-0.2544,-0.2544,0,-0.3221,-0.3134,-0.3125,-0.3061,-0.3026,-0.3034,-0.2965,-0.2932,-0.2865,-0.284,-0.2862,-0.2736,-0.2702,-0.2601,-0.2575,-0.255,-0.2529,-0.2558,-0.2439,-0.2428,-0.2418,-0.2378,-0.2363,-0.2541,-0.2541,-0.2542,-0.2542,0,-0.309,-0.303,-0.2982,-0.2918,-0.2879,-0.2813,-0.2791,-0.2752,-0.2749,-0.2728,-0.2644,-0.2604,-0.2539,-0.2516,-0.2512,-0.2413,-0.2425,-0.2443,-0.2479,-0.2401,-0.2363,-0.2348,-0.2537,-0.2538,-0.2539,-0.254,0,0,-0.2976,-0.2908,-0.289,-0.2861,-0.2806,-0.2758,-0.2692,-0.263,-0.2595,-0.255,-0.2491,-0.2408,-0.2423,-0.2387,-0.2379,-0.2333,-0.2247,-0.2355,-0.2354,-0.2334,-0.2132,-0.2116,-0.2099,-0.2252,-0.2249,-0.2246,-0.2135,0,-0.2875,-0.2758,-0.2748,-0.2642,-0.2585,-0.2592,-0.2534,-0.2493,-0.2472,-0.2419,-0.2396,-0.2335,-0.2363,-0.234,-0.2295,-0.2267,-0.2205,-0.2275,-0.2194,-0.2191,-0.2203,-0.208,-0.2063,-0.196,-0.2121,-0.2118,-0.2117,0,-0.2741,-0.2692,-0.2581,-0.2533,-0.2508,-0.2456,-0.2398,-0.2349,-0.2302,-0.229,-0.2249,-0.2248,-0.2177,-0.2219,-0.212,-0.2167,-0.2134,-0.2115,-0.2111,-0.21,-0.2146,-0.2062,-0.1927,-0.191,-0.2094,-0.2096,-0.2097,0,-0.2664,-0.2571,-0.2492,-0.2467,-0.2409,-0.2372,-0.2346,-0.2302,-0.2265,-0.2214,-0.219,-0.2131,-0.2098,-0.2051,-0.2033,-0.2066,-0.1933,-0.1975,-0.1919,-0.1919,-0.1887,-0.1889,-0.1742,-0.1872,-0.1872,-0.1873,-0.1873,0,-0.2551,-0.2482,-0.2456,-0.2407,-0.2329,-0.2317,-0.224,-0.2216,-0.2177,-0.2121,-0.2125,-0.2073,-0.2054,-0.1998,-0.1984,-0.1902,-0.1888,-0.1874,-0.187,-0.1871,-0.1872,-0.1846,-0.1851,-0.1869,-0.187,-0.187,-0.1871,0,-0.245,-0.2431,-0.2344,-0.2298,-0.2284,-0.2229,-0.2188,-0.2139,-0.212,-0.205,-0.2033,-0.2002,-0.1936,-0.1915,-0.1836,-0.1826,-0.1729,-0.1734,-0.1745,-0.1743,-0.1687,-0.1691,-0.1515,-0.149,-0.164,-0.1639,-0.1638,0,-0.2377,-0.2324,-0.2272,-0.2236,-0.2209,-0.2151,-0.2113,-0.21,-0.206,-0.2003,-0.196,-0.1896,-0.1843,-0.1738,-0.1707,-0.1646,-0.1646,-0.1589,-0.1637,-0.1639,-0.1641,-0.1642,-0.1635,-0.1578,-0.1577,-0.1575,-0.1574,0,-0.2248,-0.2241,-0.2188,-0.213,-0.2086,-0.204,-0.1995,-0.1965,-0.1945,-0.19,-0.1834,-0.1793,-0.1712,-0.1647,-0.1584,-0.1556,-0.156,-0.156,-0.1543,-0.1542,-0.1549,-0.1541,-0.1716,-0.1563,-0.1564,-0.1565,-0.1566,-0.1566,-0.2156,-0.2108,-0.2064,-0.2004,-0.1969,-0.1927,-0.1879,-0.1854,-0.1799,-0.1733,-0.1729,-0.1656,-0.1609,-0.1526,-0.1495,-0.1437,-0.1452,-0.1429,-0.1422,-0.1415,-0.1409,-0.1562,-0.1426,-0.1426,-0.1426,-0.1426,-0.1427,0,-0.2024,-0.1996,-0.1941,-0.1879,-0.1831,-0.1843,-0.1794,-0.1752,-0.1689,-0.1646,-0.1594,-0.1517,-0.1453,-0.1418,-0.1355,-0.1315,-0.1315,-0.1298,-0.1298,-0.1291,-0.14,-0.142,-0.1299,-0.1299,-0.1299,-0.1299,-0.1299,-0.1299,-0.195,-0.1868,-0.1856,-0.1757,-0.173,-0.1659,-0.163,-0.1591,-0.1556,-0.147,-0.1418,-0.1396,-0.1355,-0.1289,-0.123,-0.1222,-0.1196,-0.1177,-0.1169,-0.1271,-0.1284,-0.1296,-0.1314,-0.1173,-0.1172,-0.1064,-0.1063,-0.1063]},{"header":{"parameterUnit":"m.s-1","parameterCategory":1,"la1":30.2991,"la2":30.254,"lo1":-89.0895,"lo2":-89.0444,"dx":0.0017,"dy":0.0017,"nx":28,"ny":28,"refTime":"2023-01-17T09:00:00:Z","depth":0,"parameterNumber":3,"parameterNumberName":"V-component_of_WINDS"},"data":[0,0,0,0,0,0,0,0,0,0,0,0,0,0,0,0,0,0,0,0,0,0,0,0,0,0,0,0,0,0,0,0,0,0,0,0,0,0,0,0,0,0,0,0,0,0,0,0,0,0,0,0,0,0,0,0,0,0,3.0866,3.0867,0,3.1013,3.1015,3.1017,3.0988,3.0986,3.0983,3.0981,3.1129,3.1136,3.1142,0,0,0,0,0,0,0,0,0,0,0,0,0,3.0557,3.0563,3.0866,3.0868,3.0869,3.1013,3.1015,3.1017,3.0989,3.0986,3.0982,3.0979,3.1127,3.1135,3.1143,0,0,0,0,0,0,0,0,0,0,0,0,0,3.0696,3.0565,3.0865,3.0873,3.0875,3.1013,3.1015,3.1018,3.099,3.0986,3.0982,3.0978,3.1125,3.1134,3.1144,3.1283,0,0,3.1173,3.1177,0,0,0,0,0,0,0,0,3.0688,3.0708,3.087,3.0872,3.0875,3.0978,3.0961,3.1107,3.0991,3.0946,3.0981,3.0976,3.1082,3.1095,3.1132,3.129,3.1296,3.1174,3.118,3.1184,3.1187,0,0,0,0,0,0,0,3.0679,3.0701,3.0924,3.0872,3.0875,3.0868,3.0883,3.0988,3.1035,3.095,3.0948,3.0966,3.1083,3.1122,3.1135,3.1298,3.1174,3.1182,3.1188,3.1192,3.1579,3.1584,0,0,0,0,0,0,3.0667,3.0693,3.0919,3.0928,3.077,3.0877,3.0894,3.0949,3.1033,3.1042,3.0969,3.0964,3.1108,3.1124,3.114,3.131,3.1184,3.1193,3.1199,3.1575,3.158,3.1585,0,0,0,0,0,0,3.0661,3.0688,3.0913,3.0811,3.0839,3.0886,3.0949,3.0954,3.0994,3.1048,3.1056,3.1001,3.1105,3.1126,3.1248,3.1315,3.1197,3.1206,3.157,3.1577,3.1583,3.1651,0,0,0,0,0,0,3.0652,3.0685,3.0739,3.0812,3.0844,3.102,3.0953,3.096,3.1011,3.1005,3.108,3.1089,3.1104,3.1234,3.1258,3.1326,3.1214,3.1564,3.1573,3.1581,3.1643,3.1659,3.1673,0,0,0,0,0,3.0641,3.0752,3.0742,3.077,3.0913,3.1024,3.1042,3.1058,3.1016,3.1071,3.1106,3.1086,3.1303,3.1246,3.1273,3.1345,3.156,3.157,3.158,3.1636,3.1656,3.1673,0,0,0,0,0,0,3.0685,3.0761,3.0752,3.089,3.0951,3.1019,3.1089,3.1078,3.1152,3.1144,3.1159,3.1176,3.13,3.1334,3.127,3.1485,3.1425,3.1441,3.1459,3.1478,3.1493,3.1483,3.1222,0,0,0,0,0,3.0711,3.0795,3.0857,3.0973,3.1004,3.1041,3.109,3.1097,3.116,3.1186,3.1229,3.1291,3.1373,3.1427,3.1505,3.1646,3.1663,3.1709,3.1724,3.1736,3.1751,3.1829,3.1851,3.1618,3.1618,3.1618,0,0,3.0765,3.0817,3.087,3.0983,3.1031,3.1118,3.1063,3.1157,3.1222,3.1199,3.1318,3.1352,3.1422,3.1555,3.1615,3.1587,3.1818,3.1749,3.1758,3.1767,3.1842,3.1864,3.1884,3.1625,3.1624,3.1623,0,0,3.0909,3.0956,3.1059,3.1109,3.1182,3.1206,3.1231,3.1301,3.1323,3.1442,3.1428,3.1504,3.1645,3.1696,3.174,3.1903,3.1888,3.1927,3.2007,3.2083,3.2102,3.2118,3.2179,3.22,3.1941,3.1941,3.1941,0,3.0967,3.1099,3.1113,3.1209,3.126,3.1244,3.1348,3.1395,3.149,3.1525,3.1492,3.1669,3.1714,3.186,3.1899,3.1935,3.1964,3.192,3.2098,3.2115,3.213,3.2188,3.221,3.1945,3.1945,3.1944,3.1944,0,3.1168,3.1259,3.1333,3.1427,3.1485,3.1585,3.1613,3.1671,3.1672,3.1699,3.182,3.1874,3.1964,3.1998,3.2,3.2144,3.2124,3.2094,3.2035,3.2157,3.2211,3.2233,3.1952,3.195,3.1949,3.1948,0,0,3.1346,3.1447,3.1474,3.1517,3.1597,3.1667,3.1765,3.1854,3.1904,3.1969,3.2053,3.2172,3.2145,3.2195,3.2202,3.2269,3.2397,3.2231,3.2232,3.2262,3.2561,3.2586,3.2611,3.2386,3.239,3.2394,3.2556,0,3.15,3.1676,3.1691,3.1849,3.1934,3.1919,3.2005,3.2063,3.2091,3.2166,3.2195,3.2281,3.2237,3.2268,3.2333,3.2367,3.2458,3.2355,3.2465,3.2469,3.2452,3.2639,3.2666,3.2817,3.2577,3.2581,3.2584,0,3.1704,3.1777,3.1944,3.2013,3.2049,3.2127,3.221,3.2281,3.2346,3.2362,3.2418,3.2415,3.2516,3.2451,3.259,3.2521,3.2566,3.2589,3.2595,3.2609,3.2536,3.2661,3.2865,3.2889,3.2617,3.2614,3.2612,0,3.1821,3.1961,3.2079,3.2116,3.2199,3.2254,3.229,3.2351,3.2404,3.2475,3.251,3.2591,3.2637,3.27,3.2719,3.267,3.2859,3.2795,3.2875,3.2875,3.2919,3.2916,3.3136,3.2942,3.2942,3.2942,3.2941,0,3.1993,3.2096,3.2133,3.2207,3.2322,3.2337,3.245,3.2483,3.2538,3.2617,3.2607,3.2681,3.2701,3.2779,3.2794,3.2908,3.2928,3.2943,3.2947,3.2947,3.2945,3.2979,3.297,3.2948,3.2946,3.2945,3.2944,0,3.2145,3.2174,3.2302,3.237,3.2389,3.2471,3.2529,3.2599,3.2624,3.2725,3.2749,3.2789,3.2879,3.2904,3.3012,3.3022,3.3158,3.315,3.3137,3.3138,3.3218,3.3212,3.347,3.3506,3.3286,3.3288,3.3289,0,3.2255,3.2334,3.2411,3.2464,3.2503,3.2588,3.2642,3.2659,3.2716,3.2796,3.2857,3.2946,3.3019,3.3165,3.3203,3.3286,3.3281,3.3366,3.3294,3.3291,3.3286,3.3283,3.3292,3.3381,3.3383,3.3385,3.3387,0,3.2448,3.2458,3.2537,3.2621,3.2686,3.2753,3.2817,3.286,3.2886,3.295,3.3043,3.31,3.3211,3.3301,3.3384,3.3421,3.3409,3.3409,3.3432,3.3435,3.3425,3.3434,3.3178,3.3404,3.3402,3.3401,3.34,3.3399,3.2584,3.2655,3.272,3.2809,3.2858,3.2919,3.2989,3.3023,3.3101,3.3195,3.3198,3.3301,3.3363,3.3474,3.3515,3.3595,3.357,3.3603,3.3612,3.3621,3.3629,3.3409,3.3609,3.3609,3.3609,3.3608,3.3608,0,3.2779,3.282,3.2901,3.2992,3.3062,3.3044,3.3113,3.3173,3.3263,3.3323,3.3395,3.3503,3.3589,3.3634,3.372,3.3775,3.3772,3.3797,3.3795,3.3804,3.3646,3.3618,3.3798,3.3798,3.3798,3.3798,3.3798,3.3798,3.2889,3.3009,3.3027,3.317,3.321,3.3311,3.3353,3.3408,3.3456,3.3577,3.365,3.3678,3.3732,3.3822,3.39,3.3911,3.3944,3.3974,3.3982,3.3834,3.3815,3.3796,3.3771,3.398,3.398,3.4134,3.4135,3.4136]}]]